^^
Station Historical Data
Daily Summary for January 24, 2018 Units:  English    Metric   Both
« Previous Day
Next Day »
Daily Weekly Monthly Yearly Custom
  High: Low: Average:
Temperature: TemperatureF °F 60.1 °F 76 °F
Dew Point: DewpointF °F 29.8 °F 36.8 °F
Humidity: Humidity% 16% 25%
Wind Speed: WindSpeedMPHmph 0.0mph 1.6mph
Wind Gust: WindSpeedGustMPHmph - -
Wind- - WSW
Pressure: PressureIn in 29.55 in -
Precipitation: 0.00 in    
Historical Graphs
 
 
Tabular Data for January 24, 2018
Time Temperature Dew Point Pressure Wind Wind Speed Wind Gust Humidity Rainfall Rate (Hourly) solar Conditions
TemperatureF °F DewpointF °F PressureIn in Calm     Humidity% HourlyPrecipIn in SolarRadiationWatts/m^2 W/m2 Conditions
00:00 72.0 °F 32.2 °F 29.67 in Calm   3.0 mph 23% 0.00 in 0.0 W/m2
00:05 72.0 °F 32.2 °F 29.67 in Calm   3.0 mph 23% 0.00 in 0.0 W/m2
00:10 72.0 °F 32.2 °F 29.67 in SW 0.9 mph 3.0 mph 23% 0.00 in 0.0 W/m2
00:15 71.8 °F 32.0 °F 29.67 in Calm   1.0 mph 23% 0.00 in 0.0 W/m2
00:20 71.8 °F 32.0 °F 29.66 in Calm   1.0 mph 23% 0.00 in 0.0 W/m2
00:26 71.6 °F 31.8 °F 29.66 in Calm   1.0 mph 23% 0.00 in 0.0 W/m2
00:31 71.4 °F 31.6 °F 29.66 in Calm   1.0 mph 23% 0.00 in 0.0 W/m2
00:36 71.2 °F 31.5 °F 29.66 in Calm     23% 0.00 in 0.0 W/m2
00:41 71.1 °F 32.4 °F 29.66 in Calm   1.0 mph 24% 0.00 in 0.0 W/m2
00:46 70.9 °F 32.4 °F 29.66 in Calm     24% 0.00 in 0.0 W/m2
00:51 70.9 °F 32.4 °F 29.66 in Calm   2.0 mph 24% 0.00 in 0.0 W/m2
01:01 70.5 °F 33.1 °F 29.66 in Calm     25% 0.00 in 0.0 W/m2
01:06 70.5 °F 33.1 °F 29.66 in Calm     25% 0.00 in 0.0 W/m2
01:12 70.5 °F 33.1 °F 29.66 in Calm   1.0 mph 25% 0.00 in 0.0 W/m2
01:17 70.5 °F 32.0 °F 29.67 in Calm     24% 0.00 in 0.0 W/m2
01:22 70.5 °F 32.0 °F 29.67 in Calm   2.0 mph 24% 0.00 in 0.0 W/m2
01:27 70.5 °F 32.0 °F 29.67 in ENE 0.9 mph 5.0 mph 24% 0.00 in 0.0 W/m2
01:32 70.5 °F 32.0 °F 29.67 in Calm   1.0 mph 24% 0.00 in 0.0 W/m2
01:37 70.5 °F 32.0 °F 29.67 in Calm     24% 0.00 in 0.0 W/m2
01:42 70.5 °F 33.1 °F 29.67 in NNW 0.9 mph 1.0 mph 25% 0.00 in 0.0 W/m2
01:47 70.3 °F 32.9 °F 29.67 in NE 0.9 mph 4.0 mph 25% 0.00 in 0.0 W/m2
01:53 70.2 °F 32.7 °F 29.67 in Calm   1.0 mph 25% 0.00 in 0.0 W/m2
01:58 70.0 °F 33.4 °F 29.67 in NE 0.9 mph 1.0 mph 26% 0.00 in 0.0 W/m2
02:08 69.3 °F 32.9 °F 29.67 in Calm     26% 0.00 in 0.0 W/m2
02:13 69.1 °F 32.7 °F 29.67 in Calm   1.0 mph 26% 0.00 in 0.0 W/m2
02:18 68.7 °F 32.4 °F 29.67 in Calm   1.0 mph 26% 0.00 in 0.0 W/m2
02:23 68.5 °F 32.4 °F 29.67 in Calm     26% 0.00 in 0.0 W/m2
02:28 68.4 °F 33.1 °F 29.67 in Calm     27% 0.00 in 0.0 W/m2
02:38 67.8 °F 33.4 °F 29.67 in Calm     28% 0.00 in 0.0 W/m2
02:49 67.5 °F 32.4 °F 29.66 in Calm     27% 0.00 in 0.0 W/m2
02:54 67.3 °F 33.1 °F 29.67 in Calm   1.0 mph 28% 0.00 in 0.0 W/m2
03:00 67.1 °F 32.9 °F 29.67 in Calm     28% 0.00 in 0.0 W/m2
03:05 66.9 °F 32.7 °F 29.66 in Calm     28% 0.00 in 0.0 W/m2
03:15 66.6 °F 32.4 °F 29.66 in Calm   3.0 mph 28% 0.00 in 0.0 W/m2
03:20 66.4 °F 32.4 °F 29.66 in Calm   1.0 mph 28% 0.00 in 0.0 W/m2
03:25 66.2 °F 33.1 °F 29.66 in Calm     29% 0.00 in 0.0 W/m2
03:36 65.8 °F 32.7 °F 29.66 in Calm     29% 0.00 in 0.0 W/m2
03:41 65.7 °F 32.5 °F 29.66 in Calm   2.0 mph 29% 0.00 in 0.0 W/m2
03:46 65.5 °F 32.4 °F 29.66 in Calm   1.0 mph 29% 0.00 in 0.0 W/m2
03:51 65.3 °F 33.1 °F 29.66 in Calm     30% 0.00 in 0.0 W/m2
03:56 64.9 °F 32.7 °F 29.65 in Calm     30% 0.00 in 0.0 W/m2
04:01 64.8 °F 33.4 °F 29.66 in Calm     31% 0.00 in 0.0 W/m2
04:06 64.6 °F 33.3 °F 29.66 in Calm     31% 0.00 in 0.0 W/m2
04:11 64.4 °F 34.0 °F 29.65 in NE 0.9 mph 2.0 mph 32% 0.00 in 0.0 W/m2
04:16 64.0 °F 32.7 °F 29.66 in Calm   2.0 mph 31% 0.00 in 0.0 W/m2
04:22 63.9 °F 33.4 °F 29.66 in Calm     32% 0.00 in 0.0 W/m2
04:27 63.7 °F 33.3 °F 29.66 in Calm     32% 0.00 in 0.0 W/m2
04:32 63.3 °F 33.8 °F 29.66 in Calm     33% 0.00 in 0.0 W/m2
04:42 63.0 °F 34.2 °F 29.65 in Calm   1.0 mph 34% 0.00 in 0.0 W/m2
04:47 62.8 °F 34.0 °F 29.65 in NE 0.9 mph 1.0 mph 34% 0.00 in 0.0 W/m2
04:52 62.6 °F 33.8 °F 29.65 in Calm     34% 0.00 in 0.0 W/m2
04:57 62.4 °F 32.9 °F 29.65 in Calm   1.0 mph 33% 0.00 in 0.0 W/m2
05:02 62.2 °F 33.4 °F 29.65 in Calm   1.0 mph 34% 0.00 in 0.0 W/m2
05:08 62.1 °F 33.4 °F 29.65 in Calm   1.0 mph 34% 0.00 in 0.0 W/m2
05:13 61.9 °F 34.7 °F 29.65 in Calm     36% 0.00 in 0.0 W/m2
05:18 61.7 °F 33.8 °F 29.65 in Calm   2.0 mph 35% 0.00 in 0.0 W/m2
05:23 61.3 °F 33.4 °F 29.66 in Calm   1.0 mph 35% 0.00 in 0.0 W/m2
05:28 61.2 °F 33.3 °F 29.65 in Calm   1.0 mph 35% 0.00 in 0.0 W/m2
05:33 61.2 °F 33.3 °F 29.66 in Calm   3.0 mph 35% 0.00 in 0.0 W/m2
05:38 61.0 °F 33.1 °F 29.66 in East 2.0 mph 3.0 mph 35% 0.00 in 0.0 W/m2
05:43 60.8 °F 32.9 °F 29.66 in Calm   2.0 mph 35% 0.00 in 0.0 W/m2
05:54 60.6 °F 32.9 °F 29.66 in Calm   2.0 mph 35% 0.00 in 0.0 W/m2
05:59 60.6 °F 32.9 °F 29.66 in Calm   1.0 mph 35% 0.00 in 0.0 W/m2
06:04 60.6 °F 33.4 °F 29.66 in Calm   3.0 mph 36% 0.00 in 0.0 W/m2
06:09 60.6 °F 33.4 °F 29.66 in Calm   1.0 mph 36% 0.00 in 0.0 W/m2
06:14 60.6 °F 33.4 °F 29.66 in Calm   1.0 mph 36% 0.00 in 0.0 W/m2
06:19 60.4 °F 33.4 °F 29.66 in Calm     36% 0.00 in 0.0 W/m2
06:24 60.4 °F 34.0 °F 29.66 in Calm     37% 0.00 in 0.0 W/m2
06:29 60.4 °F 34.0 °F 29.66 in Calm     37% 0.00 in 5.0 W/m2
06:34 60.3 °F 33.8 °F 29.67 in Calm     37% 0.00 in 7.0 W/m2
06:39 60.3 °F 33.8 °F 29.67 in Calm     37% 0.00 in 9.0 W/m2
06:45 60.3 °F 34.5 °F 29.67 in Calm     38% 0.00 in 11.0 W/m2
06:50 60.1 °F 33.8 °F 29.68 in ESE 2.9 mph 4.0 mph 37% 0.00 in 12.0 W/m2
06:55 60.1 °F 33.8 °F 29.68 in Calm   1.0 mph 37% 0.00 in 14.0 W/m2
07:00 60.1 °F 33.1 °F 29.68 in Calm   2.0 mph 36% 0.00 in 16.0 W/m2
07:05 60.1 °F 33.1 °F 29.68 in ESE 0.9 mph 2.0 mph 36% 0.00 in 18.0 W/m2
07:10 60.3 °F 33.3 °F 29.68 in Calm   2.0 mph 36% 0.00 in 19.0 W/m2
07:21 61.0 °F 33.8 °F 29.68 in Calm   3.0 mph 36% 0.00 in 21.0 W/m2
07:26 61.2 °F 33.3 °F 29.68 in Calm   3.0 mph 35% 0.00 in 23.0 W/m2
07:31 61.7 °F 33.8 °F 29.68 in Calm   5.0 mph 35% 0.00 in 25.0 W/m2
07:36 62.1 °F 34.2 °F 29.68 in Calm   3.0 mph 35% 0.00 in 25.0 W/m2
07:41 62.6 °F 34.5 °F 29.68 in Calm   1.0 mph 35% 0.00 in 26.0 W/m2
07:46 63.1 °F 34.3 °F 29.68 in Calm   1.0 mph 34% 0.00 in 141.0 W/m2
07:51 63.9 °F 34.2 °F 29.68 in Calm   1.0 mph 33% 0.00 in 202.0 W/m2
07:56 64.8 °F 34.2 °F 29.68 in Calm   1.0 mph 32% 0.00 in 281.0 W/m2
08:01 65.7 °F 35.8 °F 29.68 in Calm   1.0 mph 33% 0.00 in 325.0 W/m2
08:06 66.4 °F 35.6 °F 29.68 in Calm   1.0 mph 32% 0.00 in 341.0 W/m2
08:12 67.3 °F 35.6 °F 29.68 in Calm     31% 0.00 in 371.0 W/m2
08:17 68.2 °F 34.7 °F 29.68 in Calm   1.0 mph 29% 0.00 in 399.0 W/m2
08:27 71.4 °F 30.6 °F 29.68 in Calm   1.0 mph 22% 0.00 in 438.0 W/m2
08:32 72.7 °F 30.6 °F 29.68 in West 0.9 mph 2.0 mph 21% 0.00 in 461.0 W/m2
08:37 73.4 °F 31.1 °F 29.68 in Calm   1.0 mph 21% 0.00 in 480.0 W/m2
08:42 74.8 °F 29.8 °F 29.68 in Calm   3.0 mph 19% 0.00 in 499.0 W/m2
08:47 75.9 °F 30.7 °F 29.68 in Calm   1.0 mph 19% 0.00 in 520.0 W/m2
08:58 77.0 °F 31.6 °F 29.68 in NW 0.9 mph 3.0 mph 19% 0.00 in 557.0 W/m2
09:03 77.7 °F 32.2 °F 29.68 in West 2.0 mph 3.0 mph 19% 0.00 in 577.0 W/m2
09:08 77.7 °F 32.2 °F 29.68 in NW 2.9 mph 3.0 mph 19% 0.00 in 594.0 W/m2
09:13 78.1 °F 32.5 °F 29.68 in North 2.0 mph 2.0 mph 19% 0.00 in 613.0 W/m2
09:18 78.3 °F 32.5 °F 29.67 in WNW 2.0 mph 4.0 mph 19% 0.00 in 631.0 W/m2
09:23 78.1 °F 32.5 °F 29.67 in Calm   5.0 mph 19% 0.00 in 650.0 W/m2
09:28 78.4 °F 32.7 °F 29.68 in Calm   3.0 mph 19% 0.00 in 668.0 W/m2
09:54 80.1 °F 34.2 °F 29.68 in WSW 0.9 mph 7.0 mph 19% 0.00 in 756.0 W/m2
09:59 80.2 °F 34.2 °F 29.68 in NE 2.9 mph 3.0 mph 19% 0.00 in 772.0 W/m2
10:04 80.6 °F 35.8 °F 29.67 in Calm   2.0 mph 20% 0.00 in 788.0 W/m2
10:09 81.1 °F 35.1 °F 29.67 in NW 2.0 mph 5.0 mph 19% 0.00 in 805.0 W/m2
10:14 81.9 °F 35.6 °F 29.67 in Calm   4.0 mph 19% 0.00 in 819.0 W/m2
10:19 82.2 °F 35.8 °F 29.67 in WSW 0.9 mph 3.0 mph 19% 0.00 in 835.0 W/m2
10:24 82.0 °F 35.8 °F 29.67 in Calm   3.0 mph 19% 0.00 in 851.0 W/m2
10:29 82.6 °F 36.1 °F 29.67 in NNW 4.0 mph 6.0 mph 19% 0.00 in 865.0 W/m2
10:34 83.1 °F 36.7 °F 29.67 in WSW 4.0 mph 6.0 mph 19% 0.00 in 879.0 W/m2
10:40 83.5 °F 38.1 °F 29.67 in WSW 2.9 mph 5.0 mph 20% 0.00 in 891.0 W/m2
10:45 83.5 °F 36.9 °F 29.67 in South 4.9 mph 6.0 mph 19% 0.00 in 907.0 W/m2
10:50 83.1 °F 37.9 °F 29.67 in WNW 2.9 mph 5.0 mph 20% 0.00 in 916.0 W/m2
10:55 83.1 °F 40.3 °F 29.67 in WSW 0.9 mph 8.0 mph 22% 0.00 in 925.0 W/m2
11:00 83.7 °F 39.6 °F 29.66 in Calm   7.0 mph 21% 0.00 in 937.0 W/m2
11:05 84.6 °F 41.5 °F 29.66 in Calm   8.0 mph 22% 0.00 in 946.0 W/m2
11:20 84.4 °F 40.1 °F 29.66 in WNW 2.0 mph 7.0 mph 21% 0.00 in 977.0 W/m2
11:32 86.4 °F 40.6 °F 29.66 in NW 2.0 mph 6.0 mph 20% 0.00 in 998.0 W/m2
11:42 86.5 °F 40.6 °F 29.66 in NW 2.0 mph 3.0 mph 20% 0.00 in 1014.0 W/m2
11:48 86.2 °F 40.5 °F 29.65 in WNW 0.9 mph 7.0 mph 20% 0.00 in 1023.0 W/m2
11:53 86.5 °F 40.6 °F 29.65 in NW 4.0 mph 8.0 mph 20% 0.00 in 1028.0 W/m2
11:56 86.9 °F 39.7 °F 29.65 in West 2.0 mph 5.0 mph 19% 0.00 in 1030.0 W/m2
12:01 86.9 °F 39.7 °F 29.65 in West 6.0 mph 8.0 mph 19% 0.00 in 1039.0 W/m2
12:06 86.5 °F 39.4 °F 29.65 in NW 2.9 mph 3.0 mph 19% 0.00 in 1042.0 W/m2
12:17 87.4 °F 38.7 °F 29.65 in NNW 8.9 mph 12.0 mph 18% 0.00 in 1049.0 W/m2
12:22 87.6 °F 40.3 °F 29.65 in Calm   5.0 mph 19% 0.00 in 1055.0 W/m2
12:27 87.6 °F 40.3 °F 29.64 in NW 2.0 mph 4.0 mph 19% 0.00 in 1060.0 W/m2
12:37 87.8 °F 39.0 °F 29.64 in SE 2.9 mph 4.0 mph 18% 0.00 in 1062.0 W/m2
12:42 88.3 °F 37.9 °F 29.63 in Calm   1.0 mph 17% 0.00 in 1069.0 W/m2
12:52 89.2 °F 40.3 °F 29.63 in West 0.9 mph 7.0 mph 18% 0.00 in 1058.0 W/m2
13:07 89.2 °F 38.7 °F 29.62 in WSW 2.9 mph 9.0 mph 17% 0.00 in 1081.0 W/m2
13:23 89.1 °F 40.1 °F 29.62 in SSW 4.0 mph 9.0 mph 18% 0.00 in 1100.0 W/m2
13:28 88.5 °F 39.6 °F 29.62 in WSW 4.0 mph 11.0 mph 18% 0.00 in 1095.0 W/m2
13:38 89.2 °F 40.3 °F 29.62 in North 0.9 mph 6.0 mph 18% 0.00 in 1072.0 W/m2
13:48 90.9 °F 40.1 °F 29.62 in Calm   4.0 mph 17% 0.00 in 1074.0 W/m2
13:53 91.2 °F 40.3 °F 29.61 in SE 2.0 mph 7.0 mph 17% 0.00 in 1111.0 W/m2
14:04 91.4 °F 40.5 °F 29.60 in West 0.9 mph 8.0 mph 17% 0.00 in 1090.0 W/m2
14:09 91.6 °F 39.0 °F 29.60 in WSW 4.0 mph 7.0 mph 16% 0.00 in 1151.0 W/m2
14:32 93.4 °F 40.5 °F 29.60 in NNE 0.9 mph 2.0 mph 16% 0.00 in 332.0 W/m2
14:37 92.3 °F 41.2 °F 29.60 in NW 2.0 mph 7.0 mph 17% 0.00 in 520.0 W/m2
14:43 91.6 °F 40.6 °F 29.59 in Calm   3.0 mph 17% 0.00 in 325.0 W/m2
14:48 90.7 °F 41.4 °F 29.59 in NW 2.9 mph 14.0 mph 18% 0.00 in 297.0 W/m2
14:53 89.8 °F 42.1 °F 29.59 in WNW 4.0 mph 9.0 mph 19% 0.00 in 292.0 W/m2
14:58 89.6 °F 41.9 °F 29.59 in NW 6.9 mph 12.0 mph 19% 0.00 in 397.0 W/m2
15:03 89.2 °F 41.5 °F 29.59 in WNW 2.0 mph 5.0 mph 19% 0.00 in 320.0 W/m2
15:08 88.9 °F 41.4 °F 29.59 in Calm   6.0 mph 19% 0.00 in 318.0 W/m2
15:13 89.1 °F 41.4 °F 29.59 in West 4.9 mph 9.0 mph 19% 0.00 in 1048.0 W/m2
15:18 89.2 °F 41.5 °F 29.59 in NNW 0.9 mph 8.0 mph 19% 0.00 in 229.0 W/m2
15:23 89.1 °F 41.4 °F 29.59 in NW 17.0 mph 17.0 mph 19% 0.00 in 285.0 W/m2
15:28 88.9 °F 41.4 °F 29.59 in West 0.9 mph 15.0 mph 19% 0.00 in 765.0 W/m2
15:34 89.1 °F 41.4 °F 29.58 in North 4.0 mph 8.0 mph 19% 0.00 in 986.0 W/m2
15:39 90.0 °F 42.3 °F 29.58 in WSW 8.1 mph 12.0 mph 19% 0.00 in 911.0 W/m2
15:44 90.3 °F 42.4 °F 29.58 in SW 2.9 mph 9.0 mph 19% 0.00 in 865.0 W/m2
15:49 90.3 °F 41.0 °F 29.58 in Calm   10.0 mph 18% 0.00 in 849.0 W/m2
15:54 90.3 °F 42.4 °F 29.58 in West 4.9 mph 5.0 mph 19% 0.00 in 831.0 W/m2
15:59 90.9 °F 41.5 °F 29.57 in Calm   4.0 mph 18% 0.00 in 816.0 W/m2
16:04 91.2 °F 43.2 °F 29.57 in SW 2.9 mph 6.0 mph 19% 0.00 in 860.0 W/m2
16:09 91.9 °F 42.4 °F 29.57 in SSW 2.0 mph 7.0 mph 18% 0.00 in 805.0 W/m2
16:15 91.9 °F 42.4 °F 29.57 in West 0.9 mph 5.0 mph 18% 0.00 in 735.0 W/m2
16:20 92.1 °F 42.4 °F 29.57 in SW 2.9 mph 10.0 mph 18% 0.00 in 751.0 W/m2
16:25 92.1 °F 42.4 °F 29.56 in NNW 2.9 mph 6.0 mph 18% 0.00 in 733.0 W/m2
16:30 92.1 °F 41.0 °F 29.56 in NNW 2.9 mph 10.0 mph 17% 0.00 in 686.0 W/m2
16:40 91.8 °F 42.3 °F 29.56 in NNW 4.9 mph 10.0 mph 18% 0.00 in 654.0 W/m2
16:45 91.6 °F 42.1 °F 29.56 in WSW 4.9 mph 8.0 mph 18% 0.00 in 640.0 W/m2
16:50 91.2 °F 41.7 °F 29.55 in WSW 8.9 mph 9.0 mph 18% 0.00 in 605.0 W/m2
16:55 90.9 °F 41.5 °F 29.55 in SW 4.0 mph 9.0 mph 18% 0.00 in 585.0 W/m2
17:00 90.5 °F 41.2 °F 29.55 in WSW 2.0 mph 11.0 mph 18% 0.00 in 571.0 W/m2
17:06 90.3 °F 41.0 °F 29.55 in WSW 2.9 mph 13.0 mph 18% 0.00 in 547.0 W/m2
17:11 90.3 °F 41.0 °F 29.55 in Calm   4.0 mph 18% 0.00 in 531.0 W/m2
17:16 90.3 °F 41.0 °F 29.55 in WSW 4.0 mph 7.0 mph 18% 0.00 in 515.0 W/m2
17:21 90.3 °F 41.0 °F 29.55 in West 2.0 mph 8.0 mph 18% 0.00 in 492.0 W/m2
17:26 90.7 °F 41.4 °F 29.55 in NW 4.9 mph 7.0 mph 18% 0.00 in 483.0 W/m2
17:31 90.7 °F 41.4 °F 29.55 in SW 6.9 mph 7.0 mph 18% 0.00 in 47.0 W/m2
17:36 89.8 °F 40.6 °F 29.55 in WSW 4.0 mph 5.0 mph 18% 0.00 in 65.0 W/m2
17:41 89.2 °F 40.3 °F 29.55 in WSW 2.9 mph 6.0 mph 18% 0.00 in 415.0 W/m2
17:47 89.4 °F 40.3 °F 29.55 in WSW 4.0 mph 8.0 mph 18% 0.00 in 390.0 W/m2
17:52 89.6 °F 40.5 °F 29.55 in West 2.9 mph 9.0 mph 18% 0.00 in 380.0 W/m2
17:57 89.6 °F 40.5 °F 29.55 in WSW 2.9 mph 9.0 mph 18% 0.00 in 338.0 W/m2
18:02 88.9 °F 39.9 °F 29.55 in West 2.9 mph 10.0 mph 18% 0.00 in 334.0 W/m2
18:07 88.0 °F 40.6 °F 29.55 in West 10.1 mph 11.0 mph 19% 0.00 in 308.0 W/m2
18:12 87.4 °F 40.1 °F 29.55 in WNW 8.9 mph 9.0 mph 19% 0.00 in 295.0 W/m2
18:22 87.3 °F 39.9 °F 29.56 in SW 4.9 mph 11.0 mph 19% 0.00 in 258.0 W/m2
18:28 86.9 °F 39.7 °F 29.57 in WSW 10.1 mph 17.0 mph 19% 0.00 in 234.0 W/m2
18:34 86.2 °F 40.5 °F 29.56 in SW 2.0 mph 10.0 mph 20% 0.00 in 209.0 W/m2
18:39 85.8 °F 40.1 °F 29.57 in SW 2.0 mph 10.0 mph 20% 0.00 in 185.0 W/m2
18:44 85.6 °F 39.9 °F 29.57 in West 4.9 mph 11.0 mph 20% 0.00 in 163.0 W/m2
18:50 84.7 °F 39.2 °F 29.57 in SSW 4.9 mph 13.0 mph 20% 0.00 in 132.0 W/m2
18:55 84.0 °F 38.7 °F 29.57 in SW 4.0 mph 10.0 mph 20% 0.00 in 46.0 W/m2
19:05 83.3 °F 39.4 °F 29.58 in SSW 4.9 mph 8.0 mph 21% 0.00 in 28.0 W/m2
19:15 82.2 °F 39.6 °F 29.59 in West 10.1 mph 13.0 mph 22% 0.00 in 21.0 W/m2
19:26 81.5 °F 39.0 °F 29.59 in WSW 8.9 mph 11.0 mph 22% 0.00 in 12.0 W/m2
19:32 81.0 °F 39.7 °F 29.59 in WSW 0.9 mph 9.0 mph 23% 0.00 in 9.0 W/m2
19:42 80.2 °F 39.0 °F 29.60 in WSW 2.0 mph 9.0 mph 23% 0.00 in 0.0 W/m2
19:47 80.1 °F 40.1 °F 29.60 in WSW 2.0 mph 8.0 mph 24% 0.00 in 0.0 W/m2
19:52 79.9 °F 39.9 °F 29.61 in WSW 8.9 mph 10.0 mph 24% 0.00 in 0.0 W/m2
19:57 79.3 °F 39.4 °F 29.61 in SSW 2.9 mph 14.0 mph 24% 0.00 in 0.0 W/m2
20:02 79.0 °F 40.1 °F 29.62 in Calm   11.0 mph 25% 0.00 in 0.0 W/m2
20:07 78.6 °F 39.9 °F 29.62 in West 6.0 mph 6.0 mph 25% 0.00 in 0.0 W/m2
20:12 78.4 °F 40.6 °F 29.62 in WSW 2.0 mph 7.0 mph 26% 0.00 in 0.0 W/m2
20:17 78.1 °F 40.5 °F 29.63 in WNW 6.9 mph 9.0 mph 26% 0.00 in 0.0 W/m2
20:22 77.7 °F 40.1 °F 29.63 in West 0.9 mph 7.0 mph 26% 0.00 in 0.0 W/m2
20:27 77.5 °F 41.0 °F 29.63 in WSW 4.9 mph 5.0 mph 27% 0.00 in 0.0 W/m2
20:32 77.4 °F 40.8 °F 29.64 in WSW 2.9 mph 10.0 mph 27% 0.00 in 0.0 W/m2
20:38 77.0 °F 40.5 °F 29.64 in SSW 6.0 mph 11.0 mph 27% 0.00 in 0.0 W/m2
20:43 76.6 °F 40.1 °F 29.64 in WSW 0.9 mph 8.0 mph 27% 0.00 in 0.0 W/m2
20:48 76.5 °F 39.9 °F 29.65 in WSW 8.1 mph 10.0 mph 27% 0.00 in 0.0 W/m2
20:59 75.9 °F 40.5 °F 29.65 in SW 0.9 mph 9.0 mph 28% 0.00 in 0.0 W/m2
21:04 75.7 °F 41.2 °F 29.65 in Calm   4.0 mph 29% 0.00 in 0.0 W/m2
21:09 75.7 °F 41.2 °F 29.66 in WSW 2.0 mph 3.0 mph 29% 0.00 in 0.0 W/m2
21:14 75.6 °F 41.0 °F 29.66 in Calm   3.0 mph 29% 0.00 in 0.0 W/m2
21:26 75.0 °F 40.6 °F 29.65 in WSW 2.9 mph 7.0 mph 29% 0.00 in 0.0 W/m2
21:31 74.8 °F 40.5 °F 29.66 in WSW 2.0 mph 7.0 mph 29% 0.00 in 0.0 W/m2
21:41 74.7 °F 40.3 °F 29.66 in Calm   3.0 mph 29% 0.00 in 0.0 W/m2
21:52 74.5 °F 41.0 °F 29.67 in SSW 0.9 mph 3.0 mph 30% 0.00 in 0.0 W/m2
21:57 74.1 °F 39.9 °F 29.67 in SSW 0.9 mph 5.0 mph 29% 0.00 in 0.0 W/m2
22:02 74.1 °F 39.9 °F 29.67 in Calm   2.0 mph 29% 0.00 in 0.0 W/m2
22:08 74.1 °F 39.9 °F 29.67 in Calm   1.0 mph 29% 0.00 in 0.0 W/m2
22:13 73.9 °F 39.7 °F 29.67 in Calm   3.0 mph 29% 0.00 in 0.0 W/m2
22:18 73.8 °F 38.7 °F 29.67 in SSE 0.9 mph 3.0 mph 28% 0.00 in 0.0 W/m2
22:24 73.6 °F 38.5 °F 29.67 in Calm   2.0 mph 28% 0.00 in 0.0 W/m2
22:29 73.6 °F 38.5 °F 29.67 in Calm   1.0 mph 28% 0.00 in 0.0 W/m2
22:34 73.2 °F 38.1 °F 29.67 in Calm   1.0 mph 28% 0.00 in 0.0 W/m2
22:39 73.0 °F 37.9 °F 29.67 in Calm     28% 0.00 in 0.0 W/m2
22:45 72.9 °F 37.8 °F 29.68 in Calm   1.0 mph 28% 0.00 in 0.0 W/m2
22:50 72.7 °F 38.7 °F 29.68 in Calm   1.0 mph 29% 0.00 in 0.0 W/m2
22:55 72.5 °F 38.5 °F 29.68 in Calm     29% 0.00 in 0.0 W/m2
23:00 72.1 °F 38.1 °F 29.68 in Calm     29% 0.00 in 0.0 W/m2
23:05 72.0 °F 38.8 °F 29.68 in Calm     30% 0.00 in 0.0 W/m2
23:10 71.8 °F 38.7 °F 29.68 in Calm     30% 0.00 in 0.0 W/m2
23:15 71.4 °F 38.3 °F 29.68 in Calm     30% 0.00 in 0.0 W/m2
23:20 71.2 °F 39.0 °F 29.68 in Calm     31% 0.00 in 0.0 W/m2
23:26 70.9 °F 38.7 °F 29.68 in Calm     31% 0.00 in 0.0 W/m2
23:31 70.5 °F 38.5 °F 29.68 in Calm   1.0 mph 31% 0.00 in 0.0 W/m2
23:36 70.3 °F 37.4 °F 29.68 in Calm     30% 0.00 in 0.0 W/m2
23:41 70.3 °F 37.4 °F 29.68 in Calm     30% 0.00 in 0.0 W/m2
23:46 70.2 °F 38.1 °F 29.68 in Calm   1.0 mph 31% 0.00 in 0.0 W/m2
23:51 70.2 °F 38.1 °F 29.67 in Calm     31% 0.00 in 0.0 W/m2
23:56 70.0 °F 37.0 °F 29.67 in Calm     30% 0.00 in 0.0 W/m2
Olympia, Windhoek, Namibia
Compliments of Weather Underground - 3 mb